Dewpoint
71 73 76 74 74 74 73 74 74 75 74 74 74 74 73 73 72 71 72 72 73 73 74 74 74 74 74 74 75 74 74 74 74 73 73 73 73 73 72 72 72 70 73
71 73 76 74 74 74 73 73 74 75 74 74 74 74 73 72 71 71 71 73 73 74 73 74 73 75 74 74 74 74 74 74 74 73 73 73 73 73 73 72 72 71 72
71 72 73 75 74 73 73 74 74 75 75 74 74 74 73 73 73 73 73 74 73 74 74 73 74 73 74 74 74 74 74 74 74 73 72 70 70 72 72 72 72 72 71
70 72 73 76 74 74 75 74 75 75 75 75 74 74 73 73 73 73 73 74 73 74 75 73 73 74 74 74 74 73 73 74 73 72 68 67 67 72 72 72 72 71 71
71 72 72 76 74 75 75 75 75 75 75 75 74 73 74 73 72 73 73 75 74 74 75 75 75 75 74 73 72 72 71 72 71 71 68 69 70 71 72 72 71 71 71
71 73 75 76 73 75 75 75 75 75 75 75 75 75 73 72 71 72 73 74 75 75 75 75 74 72 71 70 69 69 70 71 71 69 69 71 70 72 72 72 72 72 71
71 73 74 77 74 74 74 75 75 75 75 74 73 72 71 70 71 73 73 75 75 75 74 73 75 74 73 72 71 71 72 73 68 66 68 69 71 73 72 72 72 71 71
71 72 72 75 75 74 73 74 74 75 75 75 74 73 72 71 71 73 74 75 75 74 74 75 74 73 72 71 73 73 73 73 69 66 68 70 73 72 71 71 71 72 71
71 72 72 71 72 74 73 73 73 74 74 73 73 70 72 71 72 74 75 75 74 75 74 73 73 73 73 72 73 74 73 74 71 66 68 70 74 72 71 71 71 71 72
69 71 71 71 71 71 71 73 72 71 72 72 71 71 71 72 74 75 75 76 74 74 74 73 73 73 72 72 73 73 74 70 68 64 68 71 75 73 72 72 71 71 71
68 69 70 70 71 72 72 71 72 71 72 73 72 72 72 71 73 74 75 75 74 74 73 73 73 73 73 72 73 73 72 71 69 68 68 74 75 72 73 72 72 71 72
67 68 68 70 71 72 72 73 73 72 72 72 71 72 73 72 73 72 74 75 74 74 73 73 73 73 73 71 70 74 71 71 70 70 71 75 75 73 72 73 73 72 71
66 66 67 68 69 68 72 73 70 73 72 73 72 71 72 74 73 73 72 72 72 74 71 72 72 71 70 69 70 69 69 70 70 70 71 76 76 74 73 72 72 73 72
65 65 66 67 66 69 71 73 71 71 71 71 71 71 71 71 71 71 72 72 71 69 70 70 70 69 68 66 67 67 66 66 68 70 71 76 76 76 75 73 72 73 74
59 59 64 66 66 70 70 70 72 71 70 71 69 70 70 69 69 70 71 71 71 70 69 69 69 68 68 65 65 63 62 65 68 69 70 76 76 76 76 75 74 72 73
59 61 66 67 67 68 66 67 68 69 69 69 68 71 69 70 72 71 69 69 68 68 70 69 71 71 69 67 65 65 63 65 69 70 70 73 75 75 76 76 76 74 73
62 63 64 65 68 68 69 68 67 68 68 68 69 71 71 71 73 70 70 68 70 72 71 69 71 72 70 70 70 69 68 67 68 68 72 71 73 76 77 77 74 75 75
64 65 65 64 67 67 67 68 70 68 69 69 73 73 71 72 74 72 70 70 72 74 73 72 73 72 70 71 70 70 70 69 70 70 70 72 74 74 75 76 75 75 75
65 66 66 66 66 67 68 69 69 70 71 71 72 72 72 72 73 70 72 71 71 72 72 73 72 72 72 70 71 71 70 70 70 69 71 71 73 72 74 76 76 76 75
66 67 65 66 68 69 71 72 70 69 71 70 71 71 72 73 73 72 71 73 73 72 71 71 71 72 72 71 72 69 70 70 72 71 71 72 72 71 73 73 74 75 75
65 66 66 67 70 69 72 70 71 69 71 72 71 71 71 72 71 71 73 73 72 72 72 72 72 71 71 71 70 69 70 72 72 71 73 73 72 75 73 74 74 74 75
65 66 67 70 70 70 71 71 72 71 72 71 72 71 72 72 72 73 73 73 73 72 71 71 71 71 71 71 69 69 66 67 71 71 72 74 73 72 73 73 73 72 72
65 67 68 71 71 71 73 72 71 71 72 70 72 71 72 73 74 74 73 72 74 73 72 72 72 72 70 71 71 69 65 64 66 70 71 73 72 72 72 73 73 73 72
65 67 70 71 71 71 72 70 70 69 68 70 71 72 73 74 73 74 74 74 74 74 72 72 73 72 70 69 70 72 70 69 65 64 69 71 71 70 70 72 72 74 74
63 66 68 73 72 71 72 74 70 70 70 70 71 73 73 74 74 73 73 73 73 73 73 72 70 71 71 70 70 70 69 69 69 66 64 68 69 70 70 68 69 72 74
62 66 69 71 72 73 72 72 72 70 70 71 71 72 72 74 73 73 74 73 73 73 72 71 68 67 68 70 70 70 68 66 66 66 64 66 67 66 70 68 64 71 72
Lifted_Index
-3 -3 -4 -3 -3 -3 -3 -2 -2 -2 -2 -2 -2 -2 -1 -0 0 -0 -1 -1 -2 -2 -2 -2 -2 -2 -2 -2 -3 -3 -3 -3 -2 -2 -2 -2 -2 -2 -2 -2 -3 -3 -4
-3 -3 -4 -3 -3 -3 -3 -2 -2 -2 -2 -2 -2 -2 -1 -0 -0 -0 -1 -1 -2 -2 -2 -2 -2 -2 -2 -2 -3 -3 -3 -3 -2 -2 -2 -2 -2 -2 -2 -2 -3 -3 -3
-3 -3 -4 -4 -3 -3 -3 -3 -2 -2 -2 -2 -2 -2 -1 -1 -1 -1 -1 -2 -2 -2 -2 -2 -1 -2 -2 -3 -3 -3 -3 -2 -2 -1 -1 -1 -1 -2 -2 -2 -2 -2 -2
-3 -4 -4 -4 -3 -3 -3 -3 -3 -3 -3 -3 -2 -2 -1 -1 -1 -2 -2 -2 -2 -2 -2 -2 -2 -2 -2 -2 -2 -2 -2 -2 -2 -1 -0 -0 -1 -1 -2 -2 -2 -2 -2
-4 -4 -4 -4 -4 -4 -4 -3 -3 -3 -3 -3 -2 -2 -2 -1 -1 -1 -2 -2 -2 -2 -2 -2 -2 -2 -2 -2 -2 -2 -2 -2 -1 -1 -0 -0 -0 -1 -1 -2 -2 -2 -2
-4 -4 -5 -4 -4 -4 -4 -4 -3 -3 -3 -2 -2 -1 -1 -1 -1 -1 -2 -3 -3 -3 -3 -2 -2 -2 -1 -1 -1 -1 -1 -2 -1 -0 0 -0 -1 -1 -1 -1 -1 -1 -1
-4 -5 -5 -5 -4 -4 -4 -3 -3 -3 -3 -2 -1 -0 -0 -0 -1 -2 -2 -3 -3 -3 -2 -2 -2 -2 -1 -1 -1 -2 -2 -2 -1 1 1 0 -0 -1 -1 -1 -1 -1 -1
-4 -4 -5 -5 -4 -3 -3 -3 -3 -3 -2 -2 -1 -0 -0 -1 -1 -2 -3 -3 -3 -3 -3 -2 -2 -2 -2 -2 -2 -2 -2 -2 -1 1 1 0 -0 -1 -1 -1 -1 -1 -1
-4 -4 -4 -4 -4 -3 -3 -2 -2 -2 -2 -1 -1 -0 -1 -1 -2 -3 -3 -4 -3 -3 -3 -2 -2 -2 -2 -2 -2 -2 -2 -2 -1 0 1 -0 -1 -1 -1 -1 -1 -1 -1
-4 -4 -4 -4 -4 -4 -3 -3 -2 -1 -1 -1 -1 -1 -1 -2 -3 -4 -4 -4 -3 -3 -3 -2 -2 -2 -2 -2 -2 -2 -2 -1 -0 0 0 -1 -1 -1 -1 -1 -1 -1 -1
-3 -4 -4 -4 -4 -4 -4 -4 -3 -2 -2 -2 -1 -1 -2 -2 -3 -4 -4 -4 -3 -3 -3 -2 -2 -2 -2 -1 -1 -2 -2 -1 0 0 -0 -2 -2 -2 -1 -1 -1 -1 -1
-3 -3 -3 -4 -4 -5 -5 -5 -4 -4 -3 -2 -2 -1 -2 -2 -3 -3 -4 -4 -3 -3 -2 -2 -2 -2 -1 -1 -1 -1 -1 -1 -0 0 -0 -2 -3 -2 -2 -1 -1 -1 -1
-3 -3 -3 -3 -4 -4 -5 -5 -5 -4 -4 -3 -2 -1 -2 -2 -3 -3 -3 -3 -3 -3 -2 -2 -1 -1 -1 -0 -0 -1 -1 -1 -1 -0 -1 -2 -3 -3 -2 -2 -2 -2 -2
-2 -3 -3 -3 -3 -4 -4 -4 -4 -5 -4 -4 -3 -2 -2 -3 -3 -3 -3 -3 -3 -2 -2 -1 -1 -1 -0 -0 -0 -0 -0 -1 -1 -1 -1 -2 -3 -3 -3 -3 -2 -2 -2
-2 -2 -2 -2 -3 -3 -4 -4 -4 -4 -5 -4 -4 -3 -3 -3 -3 -4 -3 -3 -2 -2 -1 -1 -1 -1 -1 -0 -0 0 0 -0 -1 -1 -1 -2 -3 -4 -4 -4 -3 -2 -2
-1 -2 -2 -2 -2 -3 -3 -3 -4 -4 -4 -4 -4 -4 -4 -4 -4 -5 -4 -3 -2 -2 -2 -1 -2 -2 -2 -1 -1 -0 0 -0 -1 -1 -2 -2 -3 -3 -4 -4 -3 -3 -3
-1 -2 -2 -2 -3 -3 -3 -3 -3 -4 -4 -3 -3 -4 -4 -4 -5 -4 -4 -3 -3 -3 -2 -2 -2 -2 -2 -2 -2 -1 -1 -1 -1 -2 -2 -3 -3 -3 -3 -3 -3 -3 -3
-2 -2 -2 -2 -3 -3 -3 -3 -4 -4 -3 -4 -4 -4 -3 -4 -4 -4 -3 -3 -3 -3 -3 -3 -3 -3 -3 -2 -2 -2 -2 -2 -2 -2 -2 -3 -3 -3 -3 -3 -3 -3 -3
-2 -3 -3 -3 -3 -3 -4 -4 -4 -4 -4 -4 -4 -4 -4 -4 -4 -4 -3 -3 -3 -3 -3 -2 -3 -3 -3 -3 -2 -2 -2 -2 -2 -2 -2 -3 -3 -3 -3 -3 -3 -3 -3
-3 -3 -3 -3 -3 -4 -4 -5 -4 -4 -4 -4 -4 -4 -4 -4 -4 -4 -3 -3 -3 -3 -2 -2 -2 -3 -3 -3 -3 -2 -2 -2 -2 -2 -3 -2 -3 -3 -3 -3 -3 -2 -2
-3 -3 -3 -3 -4 -4 -5 -5 -4 -4 -4 -4 -4 -4 -4 -4 -4 -4 -3 -3 -3 -3 -3 -3 -3 -3 -3 -3 -3 -2 -2 -2 -2 -2 -2 -2 -2 -3 -3 -3 -3 -2 -2
-3 -3 -3 -4 -4 -4 -4 -4 -4 -3 -4 -4 -4 -4 -4 -4 -4 -4 -4 -4 -4 -3 -3 -3 -3 -3 -3 -3 -2 -2 -2 -1 -1 -1 -2 -2 -2 -3 -3 -3 -3 -2 -2
-3 -4 -4 -4 -5 -5 -5 -4 -3 -3 -4 -4 -4 -4 -4 -4 -4 -4 -4 -4 -4 -4 -3 -3 -3 -3 -3 -3 -3 -3 -2 -2 -1 -1 -2 -2 -2 -3 -3 -3 -3 -3 -3
-4 -4 -4 -5 -5 -5 -5 -5 -4 -4 -4 -5 -5 -5 -5 -5 -5 -5 -5 -5 -5 -4 -4 -4 -4 -4 -3 -3 -3 -3 -2 -2 -2 -1 -2 -2 -2 -2 -2 -3 -3 -4 -4
-4 -4 -5 -5 -5 -5 -5 -5 -5 -5 -5 -5 -5 -5 -5 -5 -5 -5 -5 -5 -5 -5 -4 -4 -3 -3 -3 -3 -3 -3 -2 -2 -2 -1 -1 -2 -2 -1 -1 -2 -3 -3 -4
-4 -4 -5 -5 -5 -5 -5 -6 -6 -5 -5 -5 -5 -6 -6 -6 -6 -6 -6 -5 -5 -5 -4 -4 -3 -2 -2 -3 -3 -3 -2 -2 -2 -2 -1 -2 -1 -1 -1 -1 -2 -3 -4